This demonstration page uses our WeatherBlox Daily Observations layout. Learn more.

Left ArrowRight Arrow

36.19886, -115.1175

Hourly Observations for December 27, 2021

Temp ( °F °C ) Dew Point ( °F °C ) Humidity (%) Winds ( mph kmh ) Pressure ( in mb ) Visibility ( mi km ) Precip ( " mm )
12:53 am 00:53 Clear 41 5 22 -5.6 47 47 NW 6 9 29.89 1012 10 16 0.00 0.00
1:53 am 01:53 Clear 41 5 21 -6.1 45 45 VRB 5 7 29.89 1012 10 16 0.00 0.00
2:53 am 02:53 Clear 40 4.4 22 -5.6 49 49 WSW 6 9 29.89 1012 10 16 0.00 0.00
3:53 am 03:53 Clear 40 4.4 22 -5.6 49 49 NW 5 7 29.88 1012 10 16 0.00 0.00
4:53 am 04:53 Clear 38 3.3 22 -5.6 52 52 WNW 6 9 29.88 1012 10 16 0.00 0.00
5:53 am 05:53 Clear 38 3.3 23 -5 55 55 WNW 7 11 29.91 1013 10 16 0.00 0.00
6:53 am 06:53 Sunny 38 3.3 22 -5.6 52 52 NNW 7 11 29.91 1013 10 16 0.00 0.00
7:53 am 07:53 Sunny 37 2.8 23 -5 57 57 SSW 3 6 29.91 1013 10 16 0.00 0.00
8:53 am 08:53 Sunny 41 5 24 -4.4 51 51 W 3 6 29.91 1013 10 16 0.00 0.00
9:53 am 09:53 Sunny 46 7.8 23 -5 40 40 E 5 7 29.88 1012 10 16 0.00 0.00
10:28 am 10:28 Sunny 51 10.6 21 -6.1 31 31 SSW 18 30 29.79 1009 10 16 0.00 0.00
10:53 am 10:53 Sunny 51 10.6 22 -5.6 32 32 W 12 19 29.83 1010 10 16 0.00 0.00
11:53 am 11:53 Sunny 53 11.7 23 -5 31 31 SSW 26 43 29.74 1007 10 16 0.00 0.00
12:53 pm 12:53 Sunny 53 11.7 24 -4.4 32 32 SSW 23 37 29.73 1007 10 16 0.00 0.00
1:53 pm 13:53 Sunny 54 12.2 25 -3.9 33 33 WSW 17 28 29.70 1006 10 16 0.00 0.00
2:53 pm 14:53 Sunny 54 12.2 26 -3.3 34 34 SW 17 28 29.69 1006 10 16 0.00 0.00
3:53 pm 15:53 Mostly Cloudy 52 11.1 28 -2.2 40 40 SSW 15 24 29.68 1005 10 16 0.00 0.00
4:53 pm 16:53 Cloudy 52 11.1 29 -1.7 41 41 SSW 14 22 29.68 1005 10 16 0.00 0.00
5:53 pm 17:53 Cloudy 53 11.7 29 -1.7 40 40 SW 22 35 29.69 1005 10 16 0.00 0.00
6:53 pm 18:53 Clear 51 10.6 29 -1.7 43 43 SW 24 39 29.69 1005 10 16 0.00 0.00
7:53 pm 19:53 Clear 50 10 28 -2.2 43 43 SSW 23 37 29.69 1005 10 16 0.00 0.00
8:53 pm 20:53 Clear 49 9.4 29 -1.7 46 46 WSW 15 24 29.70 1006 10 16 0.00 0.00
9:53 pm 21:53 Clear 49 9.4 28 -2.2 44 44 SW 17 28 29.69 1006 10 16 0.00 0.00
10:53 pm 22:53 Clear 49 9.4 27 -2.8 43 43 SSW 12 19 29.69 1005 10 16 0.00 0.00
11:53 pm 23:53 Clear 46 7.8 28 -2.2 50 50 WNW 10 17 29.70 1006 10 16 0.00 0.00

Powered by AerisWeather